Showing default

ASBM-1, 60422

Orbit data source: Space-Track

ASBM-1, 60422 is a Norwegian payload satellite in HEO that was launched on Mon, 12 Aug 2024 UTC via an FALCON 9 launch vehicle from the Air Force Western Test Range (AFWTR). Payload-class satellites include a variety of spacecraft equipped with specific instruments for various scientific and technological missions. These include communications satellites like Starlink; space stations such as the ISS; scientific satellites like the Hubble; Earth observation satellites from companies like Planet Labs, Umbra, and HawkEye 360; GPS; miniature CubeSats for education and research; and military/defense satellites.

Loading next visibility...
Identifier
60422, 2024-143A
Orbit
HEO
Country
Flag of NONO / NOR
Related business
Manufacturer
NGIS SSG
Mission
Operational Commercial Communications
Bus & Motor
GEOSTAR-3, BT-4?
Mass
3,695 kg wet, 2,035 kg dry
Launch date (UTC)
2024-08-12 (1 year ago)
Launch vehicle
FALCON 9
Launch site
Air Force Western Test Range (AFWTR)
Object type
Payload
Rocket body
Debris
Shape & HBR
Box + 2 Pan, 13.5 m
Radar Cross Section
35.796 m², Large (>1 m²)

Expand to show TLE details & history
Last TLE update: 2 days ago

TLE from 2 days ago
0 ASBM-1
1 60422U 24143A   25300.15981311  .00000006  00000-0  00000+0 0  9992
2 60422  62.6779  54.5337 5508444 268.8068  31.0320  1.50425905  8118
Epoch: 2025-10-27T03:50Z
TLE epoch observation values (Epoch: 2025-10-27T03:50:07.852Z)
Latitude
0.00004°
Longitude
-38.79115°
Altitude
16,332.996 km
Speed
4.766 km/s
True Right ascension
03h 38m 01s
True Declination
0° 00' 00"
Sunlit
Object was in daylight at epoch
Visualization orbit readout
Latitude
Unknown
Longitude
Unknown
Altitude
Unknown
Speed
Unknown
Apparent Right ascension
Unknown
Apparent Declination
Unknown
Sunlit
N/A
Visualization observer readout
Local Sidereal Time
12:51:49
Azimuth
Unknown
Elevation
Unknown
Doppler factor
Unknown
Orbital elements
Apogee altitude
43,519.816 km
Perigee altitude
8,073.31 km
Semi-major axis
32,174.7 km
Eccentricity
0.55084
Inclination
62.6779°
RAAN
54.5337°
Arg. of periapsis
268.8068°
True anomaly
91.35488°
Mean anomaly
31.032°
Eccentric anomaly
57.71326°
Mean motion
0.37607 °/min
Orbital period
957.26 mins
BSTAR
0
Loading maneuver chart data...
Computing Atmospheric mass density...
Loading historical data...
Loading historical data...
Loading historical data...
Loading historical data...
Loading historical data...
Loading historical data...
Loading historical data...
Other satellites on launch #143 in the year 2024 (2024-08-12 UTC)

Documentation

Showing up to 5 results
|